Showing default

OPS 4467 A, 812

Orbit data source: Space-Track

OPS 4467 A, 812 is an American payload satellite in SSO that was launched on Thu, 18 Jun 1964 UTC via a THOR SLV-2 AGENA D launch vehicle from the Air Force Western Test Range (AFWTR). Payloads include a variety of satellites, spacecraft, and rockets equipped with specific instruments for various scientific and technological missions. These include communications satellites like Starlink; space stations such as the ISS; scientific satellites like the Hubble; Earth observation satellites from companies like Planet Labs, Umbra, and HawkEye 360; GPS; miniature CubeSats for education and research; and military/defense satellites.

Loading next visibility...
OPS 4467 A details
Identifier
812, 1964-031A
Orbit
SSO
Last TLE update6 hours ago
Origin
Flag of USNRO/SAFSP (US)
ManufacturerRCA/East Windsor
MissionDefense Weather
Bus & MotorP35, Unknown motor
Mass50 kg wet, 50 kg dry
Launch date (UTC)
1964-06-18 (61 years ago)
Launch vehicle
THOR SLV-2 AGENA D
Launch site
Air Force Western Test Range (AFWTR)
Object type
Payload
Rocket body
Debris
Shape & HBRCyl, 0.6 m
Radar Cross Section0.377 m², Medium (>0.1 m² and < 1m²)

Expand to show TLE details & history

TLE from 6 hours ago
0 OPS 4467 A
1   812U 64031A   25014.18943035  .00000151  00000-0  88519-4 0  9992
2   812  99.7753 105.6852 0006287 101.9770 258.2111 14.24389588142861
Epoch: 2025-01-14T04:32Z
Definitive object data (Epoch: 2025-01-14T04:32:46.782Z)
Latitude0.00005°
Longitude-76.40943°
Altitude814.356 km
Speed7.446 km/s
True Right ascension07h 02m 44s
True Declination0° 00' 00"
Sunlit
Object was in full shadow at TLE epoch
Visualization TLE readout
Latitude-26.55916°
Longitude98.95529°
Altitude821.605 km
Speed7.441 km/s
Apparent Right ascension20h 36m 51s
Apparent Declination-37° 22' 29"
Sunlit
Object is in daylight
Visualization observer readout
Local Sidereal Time11:10:21
Azimuth97.601° ESE
Elevation-60.149°
Doppler factor1
Orbital elements
Apogee altitude812.27 km
Perigee altitude803.235 km
Semi-major axis7,185.89 km
Eccentricity0.0006287
Inclination99.7753°
RAAN105.6852°
Arg. of periapsis101.977°
True anomaly258.14059°
Mean anomaly258.2111°
Eccentric anomaly258.17584°
Mean motion3.56305 °/min
BSTAR0.000088519
Orbital period101.04 mins
Loading maneuver chart data...
Loading historical data...
Loading historical data...
Loading historical data...
Loading historical data...
Loading historical data...
Loading historical data...
Loading historical data...
Other satellites on launch #31 in the year 1964 (1964-06-18 UTC)

OPS 4467 A Visibility forecast

Observer location: undefined°, undefined

Span
Click to sort rows by Start time (UTC) header in descending order
Start Az.
Max El. time (UTC)
Max El. Az.
Max El.
End time (UTC)
End Az.
10 mins2025-01-14 18:36:14.905Z22.776° NE2025-01-14 18:41:14.905Z97.247° ESE40.771°2025-01-14 18:46:14.905Z181.895° SSW
5 mins2025-01-14 20:18:14.905Z330.01° NNW2025-01-14 20:20:14.905Z304.245° NW17.135°2025-01-14 20:23:14.905Z265.109° W
9 mins2025-01-15 05:57:14.905Z169.103° S2025-01-15 06:01:14.905Z239.777° WSW44.495°2025-01-15 06:06:14.905Z342.435° N
|